EHI
7 17 34 43 43 38 33 31 29 26 21 20 21 23 27 29 29 29 25 19 15 13 11 10 10 10 11 12 12 10 6 3 4 6 7 8 11 14 15 14 11 8 9
8 17 32 41 42 40 34 30 28 25 21 19 20 22 25 27 27 25 22 18 15 13 11 9 9 8 9 10 10 8 5 3 3 5 6 7 10 13 15 15 13 11 10
11 16 28 37 42 41 36 30 27 25 20 17 17 17 21 24 23 20 17 15 13 12 10 9 8 7 7 8 9 7 4 2 3 5 6 5 8 13 15 16 16 15 13
11 15 25 35 40 40 37 32 28 26 21 16 13 13 17 21 20 18 14 11 10 9 8 8 6 5 5 6 8 7 4 2 4 5 4 3 5 10 14 15 17 16 14
10 15 25 35 38 37 35 31 28 24 20 15 11 10 13 17 18 17 13 9 7 7 6 4 3 3 4 4 6 6 4 4 4 3 1 1 3 7 11 13 13 13 13
8 15 26 35 38 35 31 28 25 22 19 16 12 9 9 10 12 13 11 9 7 6 4 2 1 1 2 3 4 5 5 5 4 2 0 0 1 5 9 11 10 10 10
9 15 26 35 38 34 28 24 22 20 18 18 14 9 6 4 5 9 10 9 7 6 4 1 1 1 2 3 3 3 4 4 3 1 0 0 1 5 9 11 10 8 8
15 17 23 30 32 30 24 20 19 19 19 19 16 10 5 3 3 7 10 9 6 5 4 1 2 3 4 4 3 3 3 3 2 1 0 0 2 7 11 11 9 7 8
17 19 21 21 22 21 19 16 16 17 17 17 16 12 8 4 3 6 10 8 6 4 3 3 3 4 4 4 3 4 5 3 1 0 0 0 3 8 13 14 9 7 7
14 16 17 14 13 13 14 13 14 14 14 14 14 13 9 5 4 6 8 7 6 4 3 3 3 4 5 5 5 6 6 4 1 0 0 1 5 10 14 14 10 6 6
9 10 12 10 9 10 11 13 13 12 12 12 14 12 8 4 3 3 6 7 7 5 4 4 4 5 5 6 5 5 4 2 0 0 0 3 8 12 13 12 10 7 6
5 6 6 7 8 9 10 11 12 11 9 11 11 9 5 2 1 1 4 7 8 7 6 5 5 4 3 3 2 1 1 0 0 0 1 5 10 13 11 9 8 8 8
6 4 4 5 7 7 7 8 8 7 6 5 6 5 3 2 1 1 2 4 7 8 8 7 6 4 2 1 0 0 0 0 0 0 1 5 11 13 11 7 6 8 9
9 7 4 4 5 5 5 5 5 4 3 2 1 1 2 2 2 2 1 1 4 8 9 7 5 3 2 1 0 0 0 0 0 0 1 5 11 13 10 5 5 8 10
13 10 6 4 4 4 5 6 5 4 2 1 0 0 1 1 2 3 2 1 3 6 8 7 4 3 3 2 1 0 0 0 0 0 1 4 9 11 9 6 6 9 12
16 13 9 6 4 4 6 6 6 4 3 2 1 0 1 1 1 2 2 2 2 4 6 6 4 3 3 2 1 0 0 0 0 0 0 2 6 9 10 9 8 11 14
17 16 14 10 7 6 6 7 6 5 3 3 1 1 2 2 1 1 1 1 1 2 3 3 3 3 2 3 2 1 0 0 0 0 0 0 2 4 8 10 11 12 13
18 18 16 14 10 8 9 9 9 7 5 4 3 3 3 3 2 1 1 1 1 1 1 1 1 2 3 3 2 1 0 0 0 0 0 0 0 1 4 8 10 11 11
20 20 19 16 13 12 12 13 12 11 8 7 6 5 5 5 4 3 2 2 2 2 1 0 0 1 2 2 1 1 0 0 0 0 0 0 0 0 1 4 6 8 9
21 22 21 18 17 16 16 16 15 13 10 9 9 8 8 7 6 4 3 3 3 3 2 1 0 0 1 1 0 0 0 0 0 0 0 0 0 0 0 1 3 5 6
21 21 21 20 19 19 18 17 16 13 11 10 10 10 9 8 6 5 4 4 4 4 3 2 1 0 0 0 0 0 0 0 0 0 0 0 0 0 0 0 1 2 3
19 19 19 19 19 19 18 18 16 13 11 10 10 10 9 8 6 6 5 5 5 4 4 3 1 1 1 0 0 0 0 0 0 0 0 0 0 0 0 0 0 0 1
17 17 17 17 17 17 16 16 15 13 11 9 9 9 9 7 6 6 6 5 4 4 3 3 3 2 2 1 0 0 0 0 0 0 0 0 0 0 0 0 0 0 0
15 17 17 16 16 16 15 14 14 12 10 8 8 7 7 6 5 6 5 4 3 3 3 3 3 3 3 2 1 0 0 0 0 0 0 0 0 0 0 0 0 0 0
16 18 18 17 16 16 15 14 13 11 9 7 7 6 4 3 3 4 4 3 3 3 3 2 3 3 3 3 2 1 0 0 0 0 0 0 0 0 0 0 0 0 0
17 18 19 17 16 16 15 14 12 10 8 7 6 5 3 2 2 3 3 3 3 3 2 2 2 3 3 3 2 1 0 0 0 0 0 0 0 0 0 0 0 0 0
Wind_Speed
4 6 11 13 13 12 12 12 12 12 12 12 12 12 13 13 14 14 14 13 13 12 12 11 10 10 10 10 11 10 10 10 10 10 11 11 11 11 11 10 10 7 11
9 8 12 13 12 12 12 12 12 11 11 11 11 11 12 12 12 12 13 12 12 11 11 10 9 9 9 9 9 9 8 9 9 8 9 9 10 10 11 10 9 6 10
11 8 10 12 13 12 12 11 11 11 11 11 11 11 10 11 11 11 11 11 10 10 10 9 9 8 7 7 8 8 7 7 7 6 6 4 6 10 10 10 10 10 10
10 7 9 12 13 12 12 11 11 11 11 10 10 10 10 10 10 10 10 10 9 9 8 8 8 7 7 6 6 7 7 6 7 6 3 3 4 9 9 10 10 10 10
8 7 9 13 13 12 11 11 11 10 10 10 10 9 9 9 9 9 9 9 8 8 7 7 7 6 6 5 5 5 5 5 5 4 3 3 3 8 10 10 9 10 9
8 7 8 11 12 11 11 11 10 10 10 9 9 9 9 9 8 8 8 8 8 7 7 6 6 6 5 5 5 5 4 4 4 2 3 3 3 8 10 11 10 10 9
8 6 7 10 11 11 10 9 10 9 9 9 9 9 8 8 8 8 8 8 8 7 7 6 5 5 5 5 5 5 4 4 3 3 3 3 4 9 10 11 11 10 10
9 7 6 10 10 10 9 8 8 8 8 9 8 8 8 8 8 8 8 8 7 7 6 6 5 5 5 5 5 5 5 4 3 3 3 3 6 9 10 11 10 10 10
8 7 5 5 6 8 7 7 8 8 8 8 8 8 8 8 8 7 7 8 8 7 7 6 5 5 5 5 5 5 5 4 2 2 4 3 7 9 10 11 11 11 10
7 6 6 5 4 4 4 6 7 7 7 7 7 8 8 8 8 8 7 7 8 8 8 7 7 6 6 6 6 5 5 3 2 3 3 4 8 10 10 10 11 11 11
6 4 5 4 4 3 3 5 5 6 6 6 5 6 6 3 4 4 6 8 8 8 8 8 7 7 7 6 6 6 4 2 3 2 3 7 10 11 11 11 11 11 11
6 5 4 5 4 3 3 3 2 2 3 3 2 3 3 3 3 4 5 8 8 8 8 7 7 7 5 2 4 5 2 3 3 3 4 10 12 12 11 12 11 11 11
7 5 4 4 4 4 2 2 1 1 2 2 2 3 2 2 2 2 2 3 3 4 3 4 4 2 2 2 2 3 3 3 2 3 5 11 12 13 12 12 12 11 11
6 5 4 4 4 3 3 3 2 2 1 1 2 2 2 1 1 1 1 2 2 2 2 2 2 3 3 4 4 4 4 3 3 2 4 10 11 12 13 13 12 12 11
6 5 4 5 4 4 3 2 3 2 2 2 2 2 3 2 2 2 2 2 2 2 2 2 2 2 2 3 3 4 4 4 4 4 3 9 10 11 12 13 12 12 11
6 5 4 5 5 4 3 3 2 2 2 2 2 3 3 2 2 2 2 2 2 2 2 3 3 3 2 2 3 3 4 4 4 4 3 6 9 10 11 12 12 12 12
7 6 5 5 5 4 4 4 3 2 2 2 2 2 3 2 2 2 2 2 2 2 3 2 2 2 2 2 2 3 3 4 4 4 4 4 5 8 10 10 11 11 11
6 5 5 5 5 4 3 3 2 2 2 2 2 2 2 2 3 2 2 2 2 2 2 2 2 1 1 1 1 2 2 2 4 5 5 4 4 4 7 9 10 10 11
6 5 5 4 4 3 3 2 2 2 2 2 1 1 1 2 2 2 2 2 2 2 2 2 2 2 2 2 2 2 2 2 3 4 5 5 5 4 4 7 9 10 11
4 5 5 4 4 3 2 2 1 1 1 1 1 1 2 1 1 1 1 1 1 1 1 1 2 2 2 2 2 2 2 2 2 3 4 4 4 5 5 5 4 6 11
4 4 4 4 3 2 2 1 1 1 1 1 1 2 2 2 2 2 1 1 1 2 2 3 2 2 2 1 1 1 2 2 3 3 3 3 4 5 5 5 4 4 5
4 4 3 4 3 2 2 2 2 2 1 1 1 1 1 2 2 1 2 2 2 1 1 2 2 2 2 2 2 1 1 2 3 3 3 3 4 4 5 6 5 5 5
4 4 3 3 3 2 1 1 1 1 1 1 1 1 1 2 2 1 2 2 2 2 2 3 3 3 3 2 2 3 3 3 2 3 3 4 4 3 4 4 5 5 6
4 4 3 3 2 1 2 2 2 1 1 2 1 1 1 1 2 2 2 2 2 2 2 3 3 3 3 2 2 2 3 3 3 2 2 3 4 4 5 5 5 5 5
4 3 3 2 2 1 1 2 2 1 1 1 1 1 1 2 2 2 2 1 2 2 2 2 2 3 3 3 3 2 2 1 2 2 2 2 2 2 3 4 4 4 5
3 3 2 3 2 2 2 2 2 2 2 1 1 1 2 2 2 2 2 2 2 2 2 3 3 3 4 4 3 3 3 3 3 3 3 2 2 3 2 3 3 4 4
Wind_Direction
156 160 142 132 129 126 124 122 119 116 113 111 108 107 109 111 113 116 119 122 124 126 126 125 123 121 121 120 123 125 127 126 126 127 130 136 137 136 134 133 132 129 130
153 156 142 133 130 129 128 127 126 124 121 117 115 113 114 118 119 121 124 126 128 129 129 128 127 126 124 124 127 127 129 127 129 131 133 136 141 142 140 143 137 136 136
140 147 141 136 134 133 133 133 132 130 127 124 122 121 120 123 126 127 129 130 132 132 133 133 133 133 132 131 132 133 134 131 132 135 135 139 145 149 148 146 140 138 138
136 140 142 140 138 137 136 137 137 136 135 131 130 129 129 129 131 135 136 137 137 137 138 139 140 140 141 141 143 142 140 139 143 150 146 151 156 154 150 145 143 145 144
133 136 141 141 139 139 139 140 142 143 143 142 142 140 139 138 138 142 143 144 143 143 145 149 149 147 149 151 153 150 150 149 147 158 156 162 165 160 158 153 154 155 152
132 133 144 143 141 140 141 144 145 149 149 151 152 152 150 148 149 150 152 152 152 154 156 158 161 161 165 168 168 164 167 162 153 155 166 171 170 167 163 162 166 168 163
132 130 142 141 140 140 142 145 148 152 155 158 161 161 158 158 160 162 162 164 165 165 167 171 170 174 181 183 186 185 185 183 164 171 183 190 182 171 170 170 173 174 174
135 135 139 138 136 139 143 149 152 156 162 165 168 168 168 170 172 174 173 176 179 179 180 184 184 184 193 200 205 205 206 208 180 184 189 195 191 184 182 177 174 177 179
129 131 134 139 139 142 144 149 155 157 162 165 171 174 177 180 184 185 184 186 190 192 195 202 204 206 212 218 220 219 221 216 188 181 191 195 199 194 188 180 178 182 184
126 130 133 131 132 138 149 156 160 160 162 165 170 176 182 186 190 193 194 198 201 206 209 212 216 222 229 233 234 230 229 222 192 193 190 199 206 200 190 185 186 187 188
132 140 139 136 133 133 139 151 158 163 168 165 168 181 183 187 191 194 202 207 211 215 217 219 221 224 231 236 238 237 235 195 197 201 198 203 207 204 195 191 191 189 191
151 156 151 147 144 142 148 132 144 155 157 157 164 175 175 180 194 196 208 214 217 219 221 223 226 225 227 230 240 241 218 205 206 202 207 208 209 206 201 198 194 193 193
156 151 153 150 151 152 144 142 148 147 150 161 176 179 175 173 188 203 189 219 219 215 217 228 229 221 217 219 225 219 211 204 206 208 212 210 207 205 205 202 199 197 197
145 152 155 152 147 147 140 153 157 153 163 175 189 175 165 173 180 188 190 197 200 203 201 205 215 223 223 223 222 218 213 203 205 209 213 207 204 203 205 204 202 201 200
145 149 154 148 146 147 139 156 149 163 178 186 176 173 171 174 185 194 200 197 204 199 197 201 213 221 223 231 229 222 217 208 207 203 209 209 210 209 208 206 203 202 203
151 154 158 157 153 147 150 157 166 174 183 178 181 185 179 177 183 187 185 193 208 204 203 203 207 210 222 222 230 227 216 209 201 196 202 213 213 213 211 209 206 206 207
156 155 161 157 146 153 158 166 164 173 173 188 203 195 185 181 179 177 178 188 212 206 195 198 206 199 216 219 236 236 215 208 197 197 199 204 214 215 212 212 211 208 210
146 153 159 150 145 155 157 160 166 172 174 189 196 193 193 190 173 165 176 201 208 187 185 197 199 200 220 223 236 242 225 208 207 208 203 201 204 211 215 214 214 211 210
148 147 144 140 143 148 141 145 154 161 173 186 183 184 195 190 173 167 195 213 196 185 196 216 199 189 207 224 233 235 230 216 217 214 209 208 205 204 207 214 214 213 211
139 135 136 134 134 129 119 106 100 109 175 184 202 200 174 179 174 171 213 224 197 187 203 209 204 202 205 209 235 250 254 241 227 219 218 212 208 206 205 213 213 219 218
120 122 129 124 124 125 129 143 151 197 218 225 217 200 183 183 181 183 210 214 200 204 218 209 194 202 224 192 143 307 306 268 241 240 225 212 218 212 202 211 210 211 221
144 145 140 134 135 145 168 187 187 188 204 210 232 222 190 191 192 196 196 209 204 207 225 210 193 190 221 180 153 128 317 310 273 247 228 216 220 214 210 214 209 209 218
152 158 154 153 141 144 132 102 64 47 21 10 292 256 228 201 193 197 212 210 218 207 220 221 203 192 208 217 174 157 169 223 268 273 239 227 219 215 214 212 211 209 209
165 157 149 153 148 142 127 124 134 158 219 240 235 249 259 227 211 204 214 211 221 225 225 229 212 198 187 207 219 209 194 178 177 264 286 255 234 222 216 214 214 217 211
156 153 158 154 167 179 166 170 169 197 238 250 247 258 271 272 247 225 206 201 220 229 231 232 223 208 196 197 201 206 218 218 187 187 255 281 279 248 221 211 208 212 209
151 149 163 173 199 212 200 196 187 201 220 224 255 250 264 275 272 247 217 217 226 234 235 232 223 214 211 206 207 197 188 193 202 192 216 243 262 273 252 221 213 214 208